Regional Weather Roundup
Issued by NWS

Home | Current Version | Previous Version | Graphics & Text | Print | Product List | Glossary On
Versions: 1 2 3 4 5 6 7 8 9 10 11 12 13 14 15 16 17 18 19 20 21 22 23 24 25 26 27 28 29 30 31 32 33 34 35 36 37 38 39 40 41 42 43 44 45 46 47 48 49 50
190
ASUS45 KTFX 251510
RWRMT
MONTANA REGIONAL WEATHER ROUNDUP
NATIONAL WEATHER SERVICE GREAT FALLS MT
900 AM MDT MON SEP 25 2017

NOTE: "FAIR" INDICATES FEW OR NO CLOUDS BELOW 12000 FEET WITH NO
SIGNIFICANT WEATHER AND/OR OBSTRUCTIONS TO VISIBILITY.

MTZ001>007-043-251600-
WEST OF THE DIVIDE

CITY           SKY/WX    TMP DP  RH WIND       PRES   REMARKS
KALISPELL      CLOUDY    48  45  89 CALM      30.07R
MISSOULA       CLOUDY    46  43  89 CALM      30.11R
BUTTE          CLOUDY    33  30  88 CALM      30.13S
MULLAN PASS    CLOUDY    41  34  76 NW6       30.11S
ANACONDA         N/A     41  30  65 SE8       30.11R
DEER LODGE       N/A     39  34  81 CALM      30.13S
EUREKA           N/A     48  39  71 MISG      30.07R
HAMILTON         N/A     46  36  66 S5        30.11S
LIBBY            N/A     43  43 100 CALM      30.07R
PLAINS           N/A     46  41  83 MISG      30.09R
$$

MTZ008-052>055-251600-
SOUTHWEST MONTANA

CITY           SKY/WX    TMP DP  RH WIND       PRES   REMARKS
BOZEMAN        CLOUDY    39  33  79 SE5       30.13F
DILLON         CLOUDY    36  30  79 S3        30.13R
W YELLOWSTONE  CLOUDY    34  28  80 CALM      30.15R
ENNIS          SUNNY     34  28  80 CALM      30.19R
TWIN BRIDGES     N/A     36  28  73 CALM      30.10S
$$

MTZ009-010-012-014-046-048-049-054-251600-
EAST SLOPES AND CENTRAL MONTANA

CITY           SKY/WX    TMP DP  RH WIND       PRES   REMARKS
CUT BANK       PTSUNNY   39  35  86 CALM      30.03R
GREAT FALLS    SUNNY     47  32  56 S12       30.05R
MALMSTROM AFB  SUNNY     43  34  71 CALM      30.05F
HELENA         CLOUDY    39  34  82 CALM      30.10F
BOWMANS CRNR     N/A     42  34  72 S13       30.03F
CHOTEAU          N/A     43  36  75 SW5       30.05S
FAIRFIELD        N/A     43  34  71 CALM      30.04S
POWER            N/A     39  34  84 SW3       30.04S
RAYNESFORD       N/A     37  31  79 CALM      30.06F
ULM              N/A     45  34  64 S7        30.05F
$$

MTZ011-013-016-021-045-047-050-051-251600-
NORTH CENTRAL MONTANA

CITY           SKY/WX    TMP DP  RH WIND       PRES   REMARKS
HAVRE          SUNNY     41  35  79 CALM      30.06R
LEWISTOWN      SUNNY     37  32  82 SE6       30.08R
N BAR RANCH      N/A     39  34  81 N3        30.11R
CHINOOK          N/A     37  36  93 E6        30.07S
DENTON           N/A     38  35  87 SE8       30.04S
GEYSER           N/A     45  31  58 SW6       30.06S
JUDITH GAP       N/A     37  34  87 S13       30.08R WCI  29
WINIFRED         N/A     43  35  73 SE6       30.06S
$$

MTZ017>020-022>027-061-062-251600-
NORTHEAST MONTANA

CITY           SKY/WX    TMP DP  RH WIND       PRES   REMARKS
GLASGOW        CLOUDY    43  41  93 E10       30.13R
JORDAN           N/A     39  36  89 E3        30.12S
SIDNEY           N/A    N/A N/A N/A MISG        N/A
WOLF POINT     FOG       36  35  96 E7        30.17R VSB 1/4 WCI  30
MALTA          CLOUDY    43  39  87 NE6       30.11R
PLENTYWOOD       N/A     41  37  87 CALM      30.16S
POPLAR           N/A     37  36  93 CALM      30.17S VSB 0
SCOBEY           N/A     41  36  82 N5        30.12R
$$

MTZ028>42-056>058-251600-
SOUTHCENTRAL AND SOUTHEAST MONTANA

CITY           SKY/WX    TMP DP  RH WIND       PRES   REMARKS
BAKER          CLOUDY    43  39  86 E3        30.15S
BILLINGS       MOSUNNY   38  37  97 SW5       30.11S
LIVINGSTON     SUNNY     34  30  85 NW8       30.11S WCI  27
MILES CITY     CLOUDY    40  37  89 CALM      30.14S
BIG TIMBER     SUNNY     39  36  87 SW6       30.13S
EKALAKA          N/A     40  37  89 E2        30.10S
HARLOWTON        N/A     35  31  86 MISG      30.09S
LAUREL           N/A     39  37  93 SW6       30.12S
$$

REGIONAL REPORTS...DAKOTAS

CITY           SKY/WX    TMP DP  RH WIND       PRES   REMARKS
WILLISTON      CLOUDY    47  44  90 SW3       30.16F
MINOT          CLOUDY    49  45  86 E6        30.15F
DICKINSON      CLOUDY    45  42  89 CALM      30.14R
BEACH          CLOUDY    43  41  93 CALM      30.18S
CROSBY         CLOUDY    43  41  93 CALM      30.17S
TIOGA          CLOUDY    45  45 100 CALM      30.17S
BISMARCK       CLOUDY    49  46  90 E3        30.16S
GRAND FORKS    CLOUDY    50  46  86 N13       30.12R
FARGO          LGT RAIN  50  49  96 N12       30.10F FOG
BUFFALO SD       N/A     43  41  93 SE5       30.09R
RAPID CITY     CLOUDY    45  41  87 SE7       30.15R
$$

REGIONAL REPORTS...WYOMING/IDAHO/WASHINGTON

CITY           SKY/WX    TMP DP  RH WIND       PRES   REMARKS
GILLETTE       CLOUDY    41  39  93 CALM      30.11R
SHERIDAN       LGT RAIN  44  41  89 CALM      30.12S
BUFFALO WY     LGT RAIN  40  35  83 CALM      30.12S
CODY           LGT RAIN  41  36  82 SW7       30.12S
IDAHO FALLS    MOSUNNY   38  33  82 S5        30.15S
SALMON         CLOUDY    42  38  85 CALM      30.15S
BOISE          SUNNY     46  33  60 S7        30.13R
SPOKANE        PTSUNNY   53  44  71 S9        30.07S
$$

REGIONAL REPORTS...ALBERTA

CITY           SKY/WX    TMP DP  RH WIND       PRES   REMARKS
EDMONTON       MOSUNNY   54  48  82 SW5       29.91R
CALGARY        MOSUNNY   48  37  66 S2        29.97S
LETHBRIDGE     PTSUNNY   48  36  61 SW9       29.98S
MEDICINE HAT   PTSUNNY   41  32  70 S3        29.99S
$$

REGIONAL REPORTS...SASKATCHEWAN

CITY           SKY/WX    TMP DP  RH WIND       PRES   REMARKS
SWIFT CURRENT    N/A     46  37  71 S16       30.04S
REGINA         CLOUDY    46  39  76 SE6       30.14S
SASKATOON      MOSUNNY   46  37  71 S9        30.07S
$$




USA.gov is the U.S. government's official web portal to all federal, state and local government web resources and services.